Weather History for Goderich, ON

Change the Weather History Date:

Tuesday, December 4, 2012

  Actual Average Record
Temperature  
Mean Temperature 50 °F -  
Max Temperature 56 °F - - ()
Min Temperature 40 °F - - ()
Degree Days  
Heating Degree Days 16    
Moisture  
Dew Point 46 °F    
Average Humidity 81    
Maximum Humidity 100    
Minimum Humidity 70    
Precipitation  
Precipitation 0.35 in - - ()
Sea Level Pressure  
Sea Level Pressure 29.90 in    
Wind  
Wind Speed 15 mph ()    
Max Wind Speed 24 mph    
Max Gust Speed 33 mph    
T = Trace of Precipitation, MM = Missing Value Source: Averaged Metar Reports

Daily Weather History Graph

Daily Weather History Graph

Search for Another Location

Airport:

Trip Planner

Search our weather history database for the weather conditions in past years. The results will help you decide how hot, cold, wet, or windy it might be!

Date:

Astronomy

Dec. 04, 2012 Rise Set
Actual Time 7:44 AM EST 4:49 PM EST
Civil Twilight 7:12 AM EST 5:22 PM EST
Nautical Twilight 6:36 AM EST 5:58 PM EST
Astronomical Twilight 6:01 AM EST 6:33 PM EST
Moon 10:43 PM EST (12/4) 11:31 AM EST (12/4)
Length of Visible Light 10h 10m
Length of Day
9h 05m
Waning Gibbous, 69% of the Moon is Illuminated
Dec 4
Waning Gibbous
Dec 6
Last Quarter
Dec 13
New
Dec 20
First Quarter
Dec 28
Full

Hourly Weather History & Observations

Time (EST) Temp. Windchill Dew Point Humidity Pressure Visibility Wind Dir Wind Speed Gust Speed Precip Events Conditions
12:00 AM 60.1 °F - 54.3 °F 81% 29.88 in - South 18.4 mph 29.9 mph N/A   Unknown
1:00 AM 60 °F - 54 °F 73% 29.87 in - South 20.7 mph - -  
1:00 AM 60.3 °F - 53.6 °F 79% 29.87 in - South 20.7 mph 31.1 mph N/A   Unknown
2:00 AM 59.7 °F - 52.9 °F 78% 29.86 in - South 23.0 mph 29.9 mph N/A   Unknown
3:00 AM 59.2 °F - 52.5 °F 79% 29.86 in - South 23.0 mph 32.2 mph N/A   Unknown
4:00 AM 58.8 °F - 52.2 °F 79% 29.85 in - South 24.2 mph 31.1 mph N/A   Unknown
5:00 AM 58.6 °F - 52.0 °F 79% 29.84 in - South 23.0 mph 33.4 mph N/A   Unknown
6:00 AM 56.7 °F - 50.5 °F 80% 29.84 in - South 21.9 mph 29.9 mph N/A   Unknown
7:00 AM 56 °F - 50 °F 74% 29.85 in - South 21.9 mph - -  
7:00 AM 56.3 °F - 50.0 °F 79% 29.85 in - South 21.9 mph 31.1 mph N/A   Unknown
8:00 AM 52.5 °F - 52.3 °F 99% 29.86 in - SSW 18.4 mph 26.5 mph 0.05 in   Unknown
9:00 AM 48.6 °F - - N/A% 29.90 in - SW 9.2 mph - 0.10 in   Unknown
10:00 AM 48.0 °F - - N/A% 29.93 in - West 4.6 mph - 0.14 in   Unknown
11:00 AM 48.0 °F - 45.3 °F 90% 29.92 in - West 8.1 mph - 0.05 in   Unknown
12:00 PM 48.4 °F - 43.5 °F 83% 29.92 in - SSW 6.9 mph - 0.01 in   Unknown
1:00 PM 49 °F - 43 °F 74% 29.89 in - SSW 8.1 mph - -  
1:00 PM 48.9 °F - 43.3 °F 81% 29.89 in - SSW 8.1 mph - N/A   Unknown
2:00 PM 47.3 °F - 43.5 °F 87% 29.90 in - SSW 10.4 mph - N/A   Unknown
3:00 PM 46.6 °F - 46.6 °F 100% 29.91 in - SSW 9.2 mph - N/A   Unknown
4:00 PM 46.4 °F 42.4 °F 42.8 °F 87% 29.91 in - SW 8.1 mph - N/A   Unknown
5:00 PM 45.7 °F 41.0 °F 41.2 °F 84% 29.92 in - SSW 9.2 mph - N/A   Unknown
6:00 PM 45.3 °F 40.1 °F 40.3 °F 83% 29.93 in - SSW 10.4 mph - N/A   Unknown
7:00 PM 45 °F - 40 °F 76% 29.94 in - SW 10.4 mph - -  
7:00 PM 44.6 °F 39.2 °F 39.9 °F 84% 29.94 in - SW 10.4 mph - N/A   Unknown
8:00 PM 44.8 °F 39.4 °F 39.6 °F 82% 29.96 in - SW 10.4 mph - N/A   Unknown
9:00 PM 45.1 °F 38.8 °F 36.1 °F 71% 29.98 in - West 13.8 mph 20.7 mph N/A   Unknown
10:00 PM 43.9 °F 37.5 °F 34.7 °F 70% 30.00 in - WNW 12.7 mph 19.6 mph N/A   Unknown
11:00 PM 40.5 °F 31.8 °F 35.8 °F 83% 30.02 in - NNW 17.3 mph 25.3 mph N/A   Unknown